�ϑ��N����,2016/9/30,,,
�ϑ���,���R�@��,,,
�ϑ��n�_,P11,,,
���x�v�ԍ�,A012,,,
,,,,
����,�C��,����,����,���l
9:30:00,19.5,7,1,
9:31:00,19.8,1,1,
9:32:00,19.8,8,1,
9:33:00,19.7,7,2,
9:34:00,19.8,8,2,
9:35:00,20,1,1,
9:36:00,19.8,7,1,
9:37:00,19.8,8,2,
9:38:00,19.7,7,1,
9:39:00,19.8,2,1,
9:40:00,19.8,8,1,
9:41:00,19.8,7,1,
9:42:00,20,1,2,
9:43:00,20.1,1,2,
9:44:00,20.1,8,1,
9:45:00,20.2,2,2,
9:46:00,20.2,2,2,
9:47:00,20.1,2,1,
9:48:00,20.2,2,1,
9:49:00,20.3,2,2,
9:50:00,20.4,1,1,
9:51:00,20.2,1,1,
9:52:00,20.1,8,2,
9:53:00,20.1,7,1,
9:54:00,20,7,1,
9:55:00,19.8,8,2,
9:56:00,19.8,1,2,
9:57:00,19.7,2,1,
9:58:00,19.8,2,1,
9:59:00,19.8,1,1,
10:00:00,19.9,8,1,
10:01:00,19.9,7,1,
10:02:00,19.7,8,1,
10:03:00,19.9,0,0,
10:04:00,19.8,1,1,
10:05:00,19.8,0,0,
10:06:00,19.9,1,1,
10:07:00,19.9,8,1,
10:08:00,20,0,0,
10:09:00,20.1,7,1,
10:10:00,20.1,6,1,
10:11:00,20,7,1,
10:12:00,19.8,8,1,
10:13:00,19.9,7,1,
10:14:00,19.9,8,1,
10:15:00,20.1,0,0,
10:16:00,20.2,2,1,
10:17:00,20.1,0,0,
10:18:00,20.3,1,1,
10:19:00,20.4,7,1,
10:20:00,20.6,8,1,
10:21:00,20.7,0,0,
10:22:00,20.9,0,0,
10:23:00,21,8,1,
10:24:00,21,1,1,
10:25:00,21.2,0,0,
10:26:00,21.3,0,0,
10:27:00,21.3,1,1,
10:28:00,21.4,8,1,
10:29:00,21.4,7,1,
10:30:00,21.6,7,1,
10:31:00,21.5,8,1,
10:32:00,21.4,8,1,
10:33:00,21.2,0,0,
10:34:00,21.1,1,1,
10:35:00,21.1,8,1,
10:36:00,21,7,1,
10:37:00,21.1,8,1,
10:38:00,21,0,0,
10:39:00,21,1,1,
10:40:00,21.2,0,0,
10:41:00,21.1,1,1,
10:42:00,21.1,0,0,
10:43:00,21.2,2,1,
10:44:00,21.2,1,1,
10:45:00,21.3,0,0,
10:46:00,21.2,0,0,
10:47:00,21.3,0,0,
10:48:00,21.2,7,1,
10:49:00,21.1,8,1,
10:50:00,21.1,0,0,
10:51:00,21.2,7,1,
10:52:00,21.2,8,1,
10:53:00,21.2,7,1,
10:54:00,21.1,2,1,
10:55:00,21.2,0,0,
10:56:00,21.3,7,1,
10:57:00,21.4,8,1,
10:58:00,21.3,8,1,
10:59:00,21.4,7,1,
11:00:00,21.4,8,1,
11:01:00,21.3,7,1,
11:02:00,21.4,0,0,
11:03:00,21.4,7,1,
11:04:00,21.5,7,1,
11:05:00,21.5,0,0,
11:06:00,21.6,1,2,
11:07:00,21.7,7,1,
11:08:00,21.6,8,1,
11:09:00,21.7,1,2,
11:10:00,21.8,1,2,
11:11:00,21.7,8,1,
11:12:00,21.6,7,1,
11:13:00,21.8,7,1,
11:14:00,21.9,8,1,
11:15:00,22,1,1,
11:16:00,21.9,1,2,
11:17:00,21.9,1,2,
11:18:00,21.8,1,1,
11:19:00,21.9,1,2,
11:20:00,21.9,1,2,
11:21:00,21.8,1,2,
11:22:00,21.9,7,1,
11:23:00,22,8,1,
11:24:00,21.9,8,1,
11:25:00,22,7,1,
11:26:00,21.8,1,1,
11:27:00,21.9,1,2,
11:28:00,21.9,1,1,
11:29:00,21.9,8,1,
11:30:00,21.9,7,1,
